Year,Month,Day,Hour,Minute,Value (Times are PST for temperature in C)
2009,09,26,00,00,11.70
2009,09,26,00,01,11.70
2009,09,26,00,02,11.70
2009,09,26,00,03,11.80
2009,09,26,00,04,11.80
2009,09,26,00,05,12.00
2009,09,26,00,06,12.10
2009,09,26,00,07,12.00
2009,09,26,00,08,12.00
2009,09,26,00,09,12.00
2009,09,26,00,10,12.00
2009,09,26,00,11,12.10
2009,09,26,00,12,12.10
2009,09,26,00,13,12.20
2009,09,26,00,14,12.30
2009,09,26,00,15,12.30
2009,09,26,00,16,12.30
2009,09,26,00,17,12.50
2009,09,26,00,18,12.60
2009,09,26,00,19,12.60
2009,09,26,00,20,12.70
2009,09,26,00,21,12.70
2009,09,26,00,22,12.60
2009,09,26,00,23,12.60
2009,09,26,00,24,12.60
2009,09,26,00,25,12.60
2009,09,26,00,26,12.70
2009,09,26,00,27,12.70
2009,09,26,00,28,12.70
2009,09,26,00,29,12.60
2009,09,26,00,30,12.60
2009,09,26,00,31,12.50
2009,09,26,00,32,12.50
2009,09,26,00,33,12.50
2009,09,26,00,34,12.40
2009,09,26,00,35,12.30
2009,09,26,00,36,12.30
2009,09,26,00,37,12.30
2009,09,26,00,38,12.20
2009,09,26,00,39,12.20
2009,09,26,00,40,12.10
2009,09,26,00,41,12.10
2009,09,26,00,42,12.10
2009,09,26,00,43,12.10
2009,09,26,00,44,12.10
2009,09,26,00,45,12.00
2009,09,26,00,46,12.00
2009,09,26,00,47,11.90
2009,09,26,00,48,11.90
2009,09,26,00,49,11.90
2009,09,26,00,50,11.90
2009,09,26,00,51,11.90
2009,09,26,00,52,11.90
2009,09,26,00,53,11.90
2009,09,26,00,54,11.90
2009,09,26,00,55,12.00
2009,09,26,00,56,12.00
2009,09,26,00,57,12.00
2009,09,26,00,58,12.20
2009,09,26,00,59,12.20
2009,09,26,01,00,12.20
2009,09,26,01,01,12.30
2009,09,26,01,02,12.30
2009,09,26,01,03,12.40
2009,09,26,01,04,12.40
2009,09,26,01,05,12.40
2009,09,26,01,06,12.40
2009,09,26,01,07,12.50
2009,09,26,01,08,12.60
2009,09,26,01,09,12.70
2009,09,26,01,10,12.70
2009,09,26,01,11,12.60
2009,09,26,01,12,12.60
2009,09,26,01,13,12.60
2009,09,26,01,14,12.60
2009,09,26,01,15,12.60
2009,09,26,01,16,12.60
2009,09,26,01,17,12.70
2009,09,26,01,18,12.90
2009,09,26,01,19,12.90
2009,09,26,01,20,13.10
2009,09,26,01,21,13.10
2009,09,26,01,22,13.20
2009,09,26,01,23,13.20
2009,09,26,01,24,13.20
2009,09,26,01,25,13.20
2009,09,26,01,26,13.30
2009,09,26,01,27,13.20
2009,09,26,01,28,13.20
2009,09,26,01,29,13.30
2009,09,26,01,30,13.30
2009,09,26,01,31,13.40
2009,09,26,01,32,13.40
2009,09,26,01,33,13.50
2009,09,26,01,34,13.60
2009,09,26,01,35,13.60
2009,09,26,01,36,13.70
2009,09,26,01,37,13.80
2009,09,26,01,38,13.80
2009,09,26,01,39,13.80
2009,09,26,01,40,13.90
2009,09,26,01,41,13.90
2009,09,26,01,42,14.00
2009,09,26,01,43,14.00
2009,09,26,01,44,13.90
2009,09,26,01,45,13.90
2009,09,26,01,46,13.90
2009,09,26,01,47,13.90
2009,09,26,01,48,13.90
2009,09,26,01,49,13.90
2009,09,26,01,50,13.90
2009,09,26,01,51,13.90
2009,09,26,01,52,13.80
2009,09,26,01,53,13.80
2009,09,26,01,54,13.80
2009,09,26,01,55,13.70
2009,09,26,01,56,13.50
2009,09,26,01,57,13.40
2009,09,26,01,58,13.40
2009,09,26,01,59,13.30
2009,09,26,02,00,13.30
2009,09,26,02,01,13.40
2009,09,26,02,02,13.40
2009,09,26,02,03,13.50
2009,09,26,02,04,13.60
2009,09,26,02,05,13.60
2009,09,26,02,06,13.60
2009,09,26,02,07,13.70
2009,09,26,02,08,13.70
2009,09,26,02,09,13.70
2009,09,26,02,10,13.70
2009,09,26,02,11,13.70
2009,09,26,02,12,13.70
2009,09,26,02,13,13.70
2009,09,26,02,14,13.70
2009,09,26,02,15,13.60
2009,09,26,02,16,13.60
2009,09,26,02,17,13.60
2009,09,26,02,18,13.70
2009,09,26,02,19,13.70
2009,09,26,02,20,13.70
2009,09,26,02,21,13.70
2009,09,26,02,22,13.70
2009,09,26,02,23,13.80
2009,09,26,02,24,13.80
2009,09,26,02,25,13.70
2009,09,26,02,26,13.70
2009,09,26,02,27,13.70
2009,09,26,02,28,13.70
2009,09,26,02,29,13.60
2009,09,26,02,30,13.50
2009,09,26,02,31,13.50
2009,09,26,02,32,13.50
2009,09,26,02,33,13.40
2009,09,26,02,34,13.40
2009,09,26,02,35,13.30
2009,09,26,02,36,13.20
2009,09,26,02,37,13.10
2009,09,26,02,38,13.10
2009,09,26,02,39,13.00
2009,09,26,02,40,13.00
2009,09,26,02,41,12.80
2009,09,26,02,42,12.70
2009,09,26,02,43,12.60
2009,09,26,02,44,12.50
2009,09,26,02,45,12.60
2009,09,26,02,46,12.70
2009,09,26,02,47,12.80
2009,09,26,02,48,12.90
2009,09,26,02,49,12.90
2009,09,26,02,50,12.90
2009,09,26,02,51,12.90
2009,09,26,02,52,12.80
2009,09,26,02,53,12.80
2009,09,26,02,54,12.70
2009,09,26,02,55,12.70
2009,09,26,02,56,12.60
2009,09,26,02,57,12.60
2009,09,26,02,58,12.50
2009,09,26,02,59,12.50
2009,09,26,03,00,12.40
2009,09,26,03,01,12.40
2009,09,26,03,02,12.40
2009,09,26,03,03,12.30
2009,09,26,03,04,12.20
2009,09,26,03,05,12.10
2009,09,26,03,06,12.10
2009,09,26,03,07,12.00
2009,09,26,03,08,11.90
2009,09,26,03,09,11.90
2009,09,26,03,10,11.80
2009,09,26,03,11,11.60
2009,09,26,03,12,11.50
2009,09,26,03,13,11.50
2009,09,26,03,14,11.50
2009,09,26,03,15,11.40
2009,09,26,03,16,11.40
2009,09,26,03,17,11.40
2009,09,26,03,18,11.30
2009,09,26,03,19,11.20
2009,09,26,03,20,11.10
2009,09,26,03,21,11.00
2009,09,26,03,22,10.90
2009,09,26,03,23,10.80
2009,09,26,03,24,10.80
2009,09,26,03,25,10.80
2009,09,26,03,26,10.90
2009,09,26,03,27,11.00
2009,09,26,03,28,11.20
2009,09,26,03,29,11.40
2009,09,26,03,30,11.50
2009,09,26,03,31,11.50
2009,09,26,03,32,11.50
2009,09,26,03,33,11.50
2009,09,26,03,34,11.50
2009,09,26,03,35,11.40
2009,09,26,03,36,11.20
2009,09,26,03,37,11.20
2009,09,26,03,38,11.10
2009,09,26,03,39,11.00
2009,09,26,03,40,11.00
2009,09,26,03,41,11.10
2009,09,26,03,42,11.20
2009,09,26,03,43,11.20
2009,09,26,03,44,11.30
2009,09,26,03,45,11.40
2009,09,26,03,46,11.50
2009,09,26,03,47,11.60
2009,09,26,03,48,11.60
2009,09,26,03,49,11.70
2009,09,26,03,50,11.80
2009,09,26,03,51,11.80
2009,09,26,03,52,11.80
2009,09,26,03,53,11.70
2009,09,26,03,54,11.60
2009,09,26,03,55,11.50
2009,09,26,03,56,11.30
2009,09,26,03,57,11.30
2009,09,26,03,58,11.30
2009,09,26,03,59,11.30
2009,09,26,04,00,11.30
2009,09,26,04,01,11.20
2009,09,26,04,02,11.20
2009,09,26,04,03,11.20
2009,09,26,04,04,11.10
2009,09,26,04,05,11.10
2009,09,26,04,06,11.20
2009,09,26,04,07,11.20
2009,09,26,04,08,11.30
2009,09,26,04,09,11.40
2009,09,26,04,10,11.50
2009,09,26,04,11,11.60
2009,09,26,04,12,11.60
2009,09,26,04,13,11.60
2009,09,26,04,14,11.60
2009,09,26,04,15,11.60
2009,09,26,04,16,11.70
2009,09,26,04,17,11.60
2009,09,26,04,18,11.60
2009,09,26,04,19,11.70
2009,09,26,04,20,11.80
2009,09,26,04,21,11.80
2009,09,26,04,22,11.90
2009,09,26,04,23,12.00
2009,09,26,04,24,12.00
2009,09,26,04,25,12.20
2009,09,26,04,26,12.20
2009,09,26,04,27,12.30
2009,09,26,04,28,12.40
2009,09,26,04,29,12.50
2009,09,26,04,30,12.60
2009,09,26,04,31,12.60
2009,09,26,04,32,12.60
2009,09,26,04,33,12.60
2009,09,26,04,34,12.50
2009,09,26,04,35,12.40
2009,09,26,04,36,12.40
2009,09,26,04,37,12.40
2009,09,26,04,38,12.40
2009,09,26,04,39,12.30
2009,09,26,04,40,12.20
2009,09,26,04,41,12.20
2009,09,26,04,42,12.30
2009,09,26,04,43,12.40
2009,09,26,04,44,12.60
2009,09,26,04,45,12.70
2009,09,26,04,46,12.70
2009,09,26,04,47,12.70
2009,09,26,04,48,12.70
2009,09,26,04,49,12.70
2009,09,26,04,50,12.70
2009,09,26,04,51,12.70
2009,09,26,04,52,12.70
2009,09,26,04,53,12.70
2009,09,26,04,54,12.70
2009,09,26,04,55,12.80
2009,09,26,04,56,12.70
2009,09,26,04,57,12.60
2009,09,26,04,58,12.50
2009,09,26,04,59,12.60
2009,09,26,05,00,12.70
2009,09,26,05,01,12.70
2009,09,26,05,02,12.70
2009,09,26,05,03,12.70
2009,09,26,05,04,12.70
2009,09,26,05,05,12.70
2009,09,26,05,06,12.60
2009,09,26,05,07,12.60
2009,09,26,05,08,12.60
2009,09,26,05,09,12.60
2009,09,26,05,10,12.70
2009,09,26,05,11,12.70
2009,09,26,05,12,12.70
2009,09,26,05,13,12.60
2009,09,26,05,14,12.50
2009,09,26,05,15,12.50
2009,09,26,05,16,12.60
2009,09,26,05,17,12.60
2009,09,26,05,18,12.60
2009,09,26,05,19,12.60
2009,09,26,05,20,12.60
2009,09,26,05,21,12.60
2009,09,26,05,22,12.60
2009,09,26,05,23,12.60
2009,09,26,05,24,12.60
2009,09,26,05,25,12.60
2009,09,26,05,26,12.70
2009,09,26,05,27,12.70
2009,09,26,05,28,12.80
2009,09,26,05,29,12.80
2009,09,26,05,30,12.80
2009,09,26,05,31,12.80
2009,09,26,05,32,12.70
2009,09,26,05,33,12.70
2009,09,26,05,34,12.60
2009,09,26,05,35,12.60
2009,09,26,05,36,12.50
2009,09,26,05,37,12.50
2009,09,26,05,38,12.40
2009,09,26,05,39,12.30
2009,09,26,05,40,12.30
2009,09,26,05,41,12.30
2009,09,26,05,42,12.30
2009,09,26,05,43,12.30
2009,09,26,05,44,12.20
2009,09,26,05,45,12.00
2009,09,26,05,46,11.80
2009,09,26,05,47,11.70
2009,09,26,05,48,11.70
2009,09,26,05,49,11.60
2009,09,26,05,50,11.50
2009,09,26,05,51,11.50
2009,09,26,05,52,11.30
2009,09,26,05,53,11.20
2009,09,26,05,54,11.00
2009,09,26,05,55,10.90
2009,09,26,05,56,10.80
2009,09,26,05,57,10.80
2009,09,26,05,58,10.80
2009,09,26,05,59,10.80
2009,09,26,06,00,11.00
2009,09,26,06,01,11.10
2009,09,26,06,02,11.00
2009,09,26,06,03,11.00
2009,09,26,06,04,11.20
2009,09,26,06,05,11.30
2009,09,26,06,06,11.30
2009,09,26,06,07,11.30
2009,09,26,06,08,11.10
2009,09,26,06,09,11.00
2009,09,26,06,10,10.90
2009,09,26,06,11,10.80
2009,09,26,06,12,10.80
2009,09,26,06,13,10.80
2009,09,26,06,14,10.70
2009,09,26,06,15,10.60
2009,09,26,06,16,10.60
2009,09,26,06,17,10.60
2009,09,26,06,18,10.70
2009,09,26,06,19,10.70
2009,09,26,06,20,10.60
2009,09,26,06,21,10.60
2009,09,26,06,22,10.70
2009,09,26,06,23,10.70
2009,09,26,06,24,10.70
2009,09,26,06,25,10.70
2009,09,26,06,26,10.70
2009,09,26,06,27,10.70
2009,09,26,06,28,10.60
2009,09,26,06,29,10.50
2009,09,26,06,30,10.50
2009,09,26,06,31,10.50
2009,09,26,06,32,10.50
2009,09,26,06,33,10.40
2009,09,26,06,34,10.40
2009,09,26,06,35,10.30
2009,09,26,06,36,10.10
2009,09,26,06,37,10.00
2009,09,26,06,38,10.00
2009,09,26,06,39,10.00
2009,09,26,06,40,10.10
2009,09,26,06,41,10.10
2009,09,26,06,42,10.20
2009,09,26,06,43,10.30
2009,09,26,06,44,10.30
2009,09,26,06,45,10.30
2009,09,26,06,46,10.40
2009,09,26,06,47,10.50
2009,09,26,06,48,10.60
2009,09,26,06,49,10.70
2009,09,26,06,50,10.90
2009,09,26,06,51,11.10
2009,09,26,06,52,11.10
2009,09,26,06,53,11.10
2009,09,26,06,54,11.10
2009,09,26,06,55,11.10
2009,09,26,06,56,11.10
2009,09,26,06,57,11.00
2009,09,26,06,58,10.90
2009,09,26,06,59,10.90
2009,09,26,07,00,10.80
2009,09,26,07,01,10.80
2009,09,26,07,02,10.70
2009,09,26,07,03,10.70
2009,09,26,07,04,10.60
2009,09,26,07,05,10.50
2009,09,26,07,06,10.40
2009,09,26,07,07,10.40
2009,09,26,07,08,10.50
2009,09,26,07,09,10.50
2009,09,26,07,10,10.60
2009,09,26,07,11,10.70
2009,09,26,07,12,10.70
2009,09,26,07,13,10.80
2009,09,26,07,14,10.80
2009,09,26,07,15,10.80
2009,09,26,07,16,10.80
2009,09,26,07,17,10.80
2009,09,26,07,18,10.80
2009,09,26,07,19,10.80
2009,09,26,07,20,10.80
2009,09,26,07,21,10.80
2009,09,26,07,22,10.80
2009,09,26,07,23,10.70
2009,09,26,07,24,10.70
2009,09,26,07,25,10.70
2009,09,26,07,26,10.80
2009,09,26,07,27,10.90
2009,09,26,07,28,11.00
2009,09,26,07,29,11.20
2009,09,26,07,30,11.30
2009,09,26,07,31,11.30
2009,09,26,07,32,11.40
2009,09,26,07,33,11.40
2009,09,26,07,34,11.40
2009,09,26,07,35,11.50
2009,09,26,07,36,11.60
2009,09,26,07,37,11.70
2009,09,26,07,38,11.80
2009,09,26,07,39,12.00
2009,09,26,07,40,12.10
2009,09,26,07,41,12.30
2009,09,26,07,42,12.40
2009,09,26,07,43,12.50
2009,09,26,07,44,12.70
2009,09,26,07,45,12.90
2009,09,26,07,46,13.00
2009,09,26,07,47,13.10
2009,09,26,07,48,13.20
2009,09,26,07,49,13.30
2009,09,26,07,50,13.40
2009,09,26,07,51,13.50
2009,09,26,07,52,13.60
2009,09,26,07,53,13.60
2009,09,26,07,54,13.70
2009,09,26,07,55,13.80
2009,09,26,07,56,13.80
2009,09,26,07,57,13.80
2009,09,26,07,58,13.90
2009,09,26,07,59,13.90
2009,09,26,08,00,13.90
2009,09,26,08,01,14.00
2009,09,26,08,02,14.00
2009,09,26,08,03,14.00
2009,09,26,08,04,14.00
2009,09,26,08,05,14.00
2009,09,26,08,06,14.00
2009,09,26,08,07,14.00
2009,09,26,08,08,14.00
2009,09,26,08,09,14.00
2009,09,26,08,10,14.00
2009,09,26,08,11,13.90
2009,09,26,08,12,13.90
2009,09,26,08,13,13.90
2009,09,26,08,14,13.90
2009,09,26,08,15,13.90
2009,09,26,08,16,13.90
2009,09,26,08,17,13.90
2009,09,26,08,18,13.90
2009,09,26,08,19,13.90
2009,09,26,08,20,13.90
2009,09,26,08,21,13.90
2009,09,26,08,22,13.90
2009,09,26,08,23,13.90
2009,09,26,08,24,13.90
2009,09,26,08,25,13.90
2009,09,26,08,26,13.90
2009,09,26,08,27,13.90
2009,09,26,08,28,13.90
2009,09,26,08,29,13.90
2009,09,26,08,30,13.90
2009,09,26,08,31,14.00
2009,09,26,08,32,14.00
2009,09,26,08,33,14.00
2009,09,26,08,34,14.00
2009,09,26,08,35,14.00
2009,09,26,08,36,14.00
2009,09,26,08,37,14.00
2009,09,26,08,38,14.00
2009,09,26,08,39,14.10
2009,09,26,08,40,14.00
2009,09,26,08,41,14.00
2009,09,26,08,42,14.00
2009,09,26,08,43,14.00
2009,09,26,08,44,14.00
2009,09,26,08,45,14.00
2009,09,26,08,46,14.00
2009,09,26,08,47,14.00
2009,09,26,08,48,13.90
2009,09,26,08,49,13.90
2009,09,26,08,50,14.00
2009,09,26,08,51,14.00
2009,09,26,08,52,14.10
2009,09,26,08,53,14.10
2009,09,26,08,54,14.10
2009,09,26,08,55,14.20
2009,09,26,08,56,14.20
2009,09,26,08,57,14.20
2009,09,26,08,58,14.20
2009,09,26,08,59,14.20
2009,09,26,09,00,14.20
2009,09,26,09,01,14.20
2009,09,26,09,02,14.20
2009,09,26,09,03,14.20
2009,09,26,09,04,14.30
2009,09,26,09,05,14.30
2009,09,26,09,06,14.30
2009,09,26,09,07,14.30
2009,09,26,09,08,14.30
2009,09,26,09,09,14.30
2009,09,26,09,10,14.30
2009,09,26,09,11,14.30
2009,09,26,09,12,14.30
2009,09,26,09,13,14.40
2009,09,26,09,14,14.40
2009,09,26,09,15,14.40
2009,09,26,09,16,14.40
2009,09,26,09,17,14.40
2009,09,26,09,18,14.50
2009,09,26,09,19,14.50
2009,09,26,09,20,14.50
2009,09,26,09,21,14.50
2009,09,26,09,22,14.50
2009,09,26,09,23,14.50
2009,09,26,09,24,14.50
2009,09,26,09,25,14.50
2009,09,26,09,26,14.60
2009,09,26,09,27,14.60
2009,09,26,09,28,14.60
2009,09,26,09,29,14.70
2009,09,26,09,30,14.70
2009,09,26,09,31,14.70
2009,09,26,09,32,14.80
2009,09,26,09,33,14.80
2009,09,26,09,34,14.80
2009,09,26,09,35,14.80
2009,09,26,09,36,14.80
2009,09,26,09,37,14.80
2009,09,26,09,38,14.80
2009,09,26,09,39,14.90
2009,09,26,09,40,14.90
2009,09,26,09,41,14.90
2009,09,26,09,42,14.90
2009,09,26,09,43,14.90
2009,09,26,09,44,14.90
2009,09,26,09,45,14.90
2009,09,26,09,46,14.90
2009,09,26,09,47,14.90
2009,09,26,09,48,14.90
2009,09,26,09,49,14.80
2009,09,26,09,50,14.80
2009,09,26,09,51,14.80
2009,09,26,09,52,14.80
2009,09,26,09,53,14.80
2009,09,26,09,54,14.80
2009,09,26,09,55,14.80
2009,09,26,09,56,14.80
2009,09,26,09,57,14.80
2009,09,26,09,58,14.90
2009,09,26,09,59,15.00
2009,09,26,10,00,15.00
2009,09,26,10,01,15.00
2009,09,26,10,02,15.00
2009,09,26,10,03,15.00
2009,09,26,10,04,15.00
2009,09,26,10,05,15.00
2009,09,26,10,06,15.00
2009,09,26,10,07,15.00
2009,09,26,10,08,15.00
2009,09,26,10,09,15.00
2009,09,26,10,10,15.00
2009,09,26,10,11,15.00
2009,09,26,10,12,15.00
2009,09,26,10,13,15.00
2009,09,26,10,14,15.00
2009,09,26,10,15,15.00
2009,09,26,10,16,15.00
2009,09,26,10,17,15.00
2009,09,26,10,18,15.00
2009,09,26,10,19,15.00
2009,09,26,10,20,15.00
2009,09,26,10,21,15.00
2009,09,26,10,22,15.00
2009,09,26,10,23,15.00
2009,09,26,10,24,15.00
2009,09,26,10,25,15.00
2009,09,26,10,26,15.00
2009,09,26,10,27,15.00
2009,09,26,10,28,15.00
2009,09,26,10,29,15.00
2009,09,26,10,30,15.00
2009,09,26,10,31,14.90
2009,09,26,10,32,14.80
2009,09,26,10,33,14.80
2009,09,26,10,34,14.80
2009,09,26,10,35,14.80
2009,09,26,10,36,14.80
2009,09,26,10,37,14.80
2009,09,26,10,38,14.80
2009,09,26,10,39,14.80
2009,09,26,10,40,14.70
2009,09,26,10,41,14.70
2009,09,26,10,42,14.80
2009,09,26,10,43,14.80
2009,09,26,10,44,14.80
2009,09,26,10,45,14.80
2009,09,26,10,46,14.90
2009,09,26,10,47,14.90
2009,09,26,10,48,14.80
2009,09,26,10,49,14.80
2009,09,26,10,50,14.80
2009,09,26,10,51,14.90
2009,09,26,10,52,14.90
2009,09,26,10,53,15.00
2009,09,26,10,54,15.00
2009,09,26,10,55,15.00
2009,09,26,10,56,15.00
2009,09,26,10,57,15.00
2009,09,26,10,58,15.10
2009,09,26,10,59,15.10
2009,09,26,11,00,15.10
2009,09,26,11,01,15.20
2009,09,26,11,02,15.20
2009,09,26,11,03,15.30
2009,09,26,11,04,15.30
2009,09,26,11,05,15.40
2009,09,26,11,06,15.40
2009,09,26,11,07,15.40
2009,09,26,11,08,15.40
2009,09,26,11,09,15.40
2009,09,26,11,10,15.40
2009,09,26,11,11,15.40
2009,09,26,11,12,15.40
2009,09,26,11,13,15.30
2009,09,26,11,14,15.30
2009,09,26,11,15,15.20
2009,09,26,11,16,15.20
2009,09,26,11,17,15.20
2009,09,26,11,18,15.20
2009,09,26,11,19,15.20
2009,09,26,11,20,15.20
2009,09,26,11,21,15.20
2009,09,26,11,22,15.20
2009,09,26,11,23,15.30
2009,09,26,11,24,15.30
2009,09,26,11,25,15.30
2009,09,26,11,26,15.30
2009,09,26,11,27,15.30
2009,09,26,11,28,15.20
2009,09,26,11,29,15.30
2009,09,26,11,30,15.30
2009,09,26,11,31,15.30
2009,09,26,11,32,15.30
2009,09,26,11,33,15.30
2009,09,26,11,34,15.40
2009,09,26,11,35,15.40
2009,09,26,11,36,15.40
2009,09,26,11,37,15.30
2009,09,26,11,38,15.30
2009,09,26,11,39,15.30
2009,09,26,11,40,15.30
2009,09,26,11,41,15.30
2009,09,26,11,42,15.30
2009,09,26,11,43,15.30
2009,09,26,11,44,15.30
2009,09,26,11,45,15.30
2009,09,26,11,46,15.30
2009,09,26,11,47,15.20
2009,09,26,11,48,15.30
2009,09,26,11,49,15.30
2009,09,26,11,50,15.40
2009,09,26,11,51,15.40
2009,09,26,11,52,15.50
2009,09,26,11,53,15.60
2009,09,26,11,54,15.50
2009,09,26,11,55,15.50
2009,09,26,11,56,15.50
2009,09,26,11,57,15.50
2009,09,26,11,58,15.60
2009,09,26,11,59,15.60
2009,09,26,12,00,15.60
2009,09,26,12,01,15.50
2009,09,26,12,02,15.50
2009,09,26,12,03,15.50
2009,09,26,12,04,15.50
2009,09,26,12,05,15.50
2009,09,26,12,06,15.40
2009,09,26,12,07,15.30
2009,09,26,12,08,15.30
2009,09,26,12,09,15.30
2009,09,26,12,10,15.30
2009,09,26,12,11,15.20
2009,09,26,12,12,15.20
2009,09,26,12,13,15.10
2009,09,26,12,14,15.20
2009,09,26,12,15,15.20
2009,09,26,12,16,15.10
2009,09,26,12,17,15.20
2009,09,26,12,18,15.20
2009,09,26,12,19,15.30
2009,09,26,12,20,15.30
2009,09,26,12,21,15.30
2009,09,26,12,22,15.30
2009,09,26,12,23,15.30
2009,09,26,12,24,15.40
2009,09,26,12,25,15.30
2009,09,26,12,26,15.40
2009,09,26,12,27,15.40
2009,09,26,12,28,15.40
2009,09,26,12,29,15.50
2009,09,26,12,30,15.40
2009,09,26,12,31,15.40
2009,09,26,12,32,15.40
2009,09,26,12,33,15.40
2009,09,26,12,34,15.40
2009,09,26,12,35,15.40
2009,09,26,12,36,15.40
2009,09,26,12,37,15.40
2009,09,26,12,38,15.30
2009,09,26,12,39,15.30
2009,09,26,12,40,15.30
2009,09,26,12,41,15.30
2009,09,26,12,42,15.30
2009,09,26,12,43,15.40
2009,09,26,12,44,15.40
2009,09,26,12,45,15.40
2009,09,26,12,46,15.40
2009,09,26,12,47,15.40
2009,09,26,12,48,15.30
2009,09,26,12,49,15.30
2009,09,26,12,50,15.30
2009,09,26,12,51,15.30
2009,09,26,12,52,15.30
2009,09,26,12,53,15.30
2009,09,26,12,54,15.40
2009,09,26,12,55,15.40
2009,09,26,12,56,15.50
2009,09,26,12,57,15.50
2009,09,26,12,58,15.50
2009,09,26,12,59,15.50
2009,09,26,13,00,15.50
2009,09,26,13,01,15.60
2009,09,26,13,02,15.60
2009,09,26,13,03,15.60
2009,09,26,13,04,15.60
2009,09,26,13,05,15.60
2009,09,26,13,06,15.60
2009,09,26,13,07,15.70
2009,09,26,13,08,15.70
2009,09,26,13,09,15.70
2009,09,26,13,10,15.70
2009,09,26,13,11,15.70
2009,09,26,13,12,15.70
2009,09,26,13,13,15.60
2009,09,26,13,14,15.60
2009,09,26,13,15,15.60
2009,09,26,13,16,15.50
2009,09,26,13,17,15.50
2009,09,26,13,18,15.50
2009,09,26,13,19,15.50
2009,09,26,13,20,15.50
2009,09,26,13,21,15.50
2009,09,26,13,22,15.50
2009,09,26,13,23,15.50
2009,09,26,13,24,15.50
2009,09,26,13,25,15.50
2009,09,26,13,26,15.50
2009,09,26,13,27,15.40
2009,09,26,13,28,15.40
2009,09,26,13,29,15.40
2009,09,26,13,30,15.40
2009,09,26,13,31,15.40
2009,09,26,13,32,15.30
2009,09,26,13,33,15.30
2009,09,26,13,34,15.30
2009,09,26,13,35,15.40
2009,09,26,13,36,15.40
2009,09,26,13,37,15.40
2009,09,26,13,38,15.40
2009,09,26,13,39,15.40
2009,09,26,13,40,15.40
2009,09,26,13,41,15.50
2009,09,26,13,42,15.50
2009,09,26,13,43,15.50
2009,09,26,13,44,15.50
2009,09,26,13,45,15.40
2009,09,26,13,46,15.40
2009,09,26,13,47,15.40
2009,09,26,13,48,15.40
2009,09,26,13,49,15.40
2009,09,26,13,50,15.40
2009,09,26,13,51,15.40
2009,09,26,13,52,15.40
2009,09,26,13,53,15.30
2009,09,26,13,54,15.30
2009,09,26,13,55,15.40
2009,09,26,13,56,15.40
2009,09,26,13,57,15.40
2009,09,26,13,58,15.40
2009,09,26,13,59,15.30
2009,09,26,14,00,15.30
2009,09,26,14,01,15.30
2009,09,26,14,02,15.30
2009,09,26,14,03,15.30
2009,09,26,14,04,15.30
2009,09,26,14,05,15.30
2009,09,26,14,06,15.30
2009,09,26,14,07,15.40
2009,09,26,14,08,15.40
2009,09,26,14,09,15.40
2009,09,26,14,10,15.40
2009,09,26,14,11,15.30
2009,09,26,14,12,15.30
2009,09,26,14,13,15.40
2009,09,26,14,14,15.40
2009,09,26,14,15,15.50
2009,09,26,14,16,15.50
2009,09,26,14,17,15.40
2009,09,26,14,18,15.30
2009,09,26,14,19,15.30
2009,09,26,14,20,15.20
2009,09,26,14,21,15.20
2009,09,26,14,22,15.30
2009,09,26,14,23,15.30
2009,09,26,14,24,15.30
2009,09,26,14,25,15.30
2009,09,26,14,26,15.30
2009,09,26,14,27,15.20
2009,09,26,14,28,15.30
2009,09,26,14,29,15.30
2009,09,26,14,30,15.30
2009,09,26,14,31,15.30
2009,09,26,14,32,15.30
2009,09,26,14,33,15.20
2009,09,26,14,34,15.20
2009,09,26,14,35,15.20
2009,09,26,14,36,15.20
2009,09,26,14,37,15.10
2009,09,26,14,38,15.10
2009,09,26,14,39,15.20
2009,09,26,14,40,15.20
2009,09,26,14,41,15.20
2009,09,26,14,42,15.20
2009,09,26,14,43,15.20
2009,09,26,14,44,15.30
2009,09,26,14,45,15.30
2009,09,26,14,46,15.30
2009,09,26,14,47,15.30
2009,09,26,14,48,15.30
2009,09,26,14,49,15.40
2009,09,26,14,50,15.40
2009,09,26,14,51,15.40
2009,09,26,14,52,15.40
2009,09,26,14,53,15.40
2009,09,26,14,54,15.40
2009,09,26,14,55,15.40
2009,09,26,14,56,15.40
2009,09,26,14,57,15.50
2009,09,26,14,58,15.50
2009,09,26,14,59,15.50
2009,09,26,15,00,15.60
2009,09,26,15,01,15.50
2009,09,26,15,02,15.60
2009,09,26,15,03,15.60
2009,09,26,15,04,15.60
2009,09,26,15,05,15.60
2009,09,26,15,06,15.60
2009,09,26,15,07,15.60
2009,09,26,15,08,15.60
2009,09,26,15,09,15.70
2009,09,26,15,10,15.70
2009,09,26,15,11,15.80
2009,09,26,15,12,15.80
2009,09,26,15,13,15.80
2009,09,26,15,14,15.80
2009,09,26,15,15,15.80
2009,09,26,15,16,15.90
2009,09,26,15,17,15.90
2009,09,26,15,18,15.90
2009,09,26,15,19,15.80
2009,09,26,15,20,15.80
2009,09,26,15,21,15.80
2009,09,26,15,22,15.80
2009,09,26,15,23,15.80
2009,09,26,15,24,15.70
2009,09,26,15,25,15.70
2009,09,26,15,26,15.70
2009,09,26,15,27,15.70
2009,09,26,15,28,15.70
2009,09,26,15,29,15.70
2009,09,26,15,30,15.80
2009,09,26,15,31,15.80
2009,09,26,15,32,15.80
2009,09,26,15,33,15.90
2009,09,26,15,34,15.90
2009,09,26,15,35,15.90
2009,09,26,15,36,16.00
2009,09,26,15,37,16.00
2009,09,26,15,38,16.00
2009,09,26,15,39,16.00
2009,09,26,15,40,16.00
2009,09,26,15,41,16.00
2009,09,26,15,42,16.10
2009,09,26,15,43,16.00
2009,09,26,15,44,15.90
2009,09,26,15,45,15.90
2009,09,26,15,46,15.90
2009,09,26,15,47,15.90
2009,09,26,15,48,15.90
2009,09,26,15,49,15.90
2009,09,26,15,50,15.90
2009,09,26,15,51,15.80
2009,09,26,15,52,15.80
2009,09,26,15,53,15.70
2009,09,26,15,54,15.70
2009,09,26,15,55,15.70
2009,09,26,15,56,15.70
2009,09,26,15,57,15.70
2009,09,26,15,58,15.70
2009,09,26,15,59,15.70
2009,09,26,16,00,15.70
2009,09,26,16,01,15.80
2009,09,26,16,02,15.80
2009,09,26,16,03,15.80
2009,09,26,16,04,15.70
2009,09,26,16,05,15.70
2009,09,26,16,06,15.70
2009,09,26,16,07,15.70
2009,09,26,16,08,15.70
2009,09,26,16,09,15.70
2009,09,26,16,10,15.70
2009,09,26,16,11,15.70
2009,09,26,16,12,15.70
2009,09,26,16,13,15.70
2009,09,26,16,14,15.60
2009,09,26,16,15,15.60
2009,09,26,16,16,15.60
2009,09,26,16,17,15.60
2009,09,26,16,18,15.60
2009,09,26,16,19,15.60
2009,09,26,16,20,15.70
2009,09,26,16,21,15.70
2009,09,26,16,22,15.70
2009,09,26,16,23,15.70
2009,09,26,16,24,15.80
2009,09,26,16,25,15.90
2009,09,26,16,26,15.90
2009,09,26,16,27,15.90
2009,09,26,16,28,15.90
2009,09,26,16,29,15.90
2009,09,26,16,30,15.90
2009,09,26,16,31,15.90
2009,09,26,16,32,15.90
2009,09,26,16,33,15.90
2009,09,26,16,34,15.90
2009,09,26,16,35,15.80
2009,09,26,16,36,15.80
2009,09,26,16,37,15.80
2009,09,26,16,38,15.80
2009,09,26,16,39,15.80
2009,09,26,16,40,15.90
2009,09,26,16,41,16.00
2009,09,26,16,42,16.10
2009,09,26,16,43,16.10
2009,09,26,16,44,16.20
2009,09,26,16,45,16.10
2009,09,26,16,46,16.10
2009,09,26,16,47,16.10
2009,09,26,16,48,16.10
2009,09,26,16,49,16.10
2009,09,26,16,50,16.10
2009,09,26,16,51,16.10
2009,09,26,16,52,16.10
2009,09,26,16,53,16.10
2009,09,26,16,54,16.00
2009,09,26,16,55,15.90
2009,09,26,16,56,15.90
2009,09,26,16,57,15.90
2009,09,26,16,58,15.90
2009,09,26,16,59,15.90
2009,09,26,17,00,15.90
2009,09,26,17,01,15.90
2009,09,26,17,02,16.00
2009,09,26,17,03,16.10
2009,09,26,17,04,16.10
2009,09,26,17,05,16.10
2009,09,26,17,06,16.10
2009,09,26,17,07,16.10
2009,09,26,17,08,16.00
2009,09,26,17,09,15.90
2009,09,26,17,10,15.90
2009,09,26,17,11,15.80
2009,09,26,17,12,15.90
2009,09,26,17,13,15.80
2009,09,26,17,14,15.80
2009,09,26,17,15,15.80
2009,09,26,17,16,15.80
2009,09,26,17,17,15.80
2009,09,26,17,18,15.80
2009,09,26,17,19,15.80